Location: Most
(50.5330°N, 13.6500°E)
Time: 03:39:40
(UTC+02:00)

ISS - Pass Details

Date: 21 May 2021
Orbit: 417 x 422 km, 51.6° (Epoch: 13 June)

Event Time Altitude Azimuth Distance (km) Brightness Sun altitude
Rises 23:44:29 0° 283° (WNW) 2,368 0.5 -17.1°
Reaches altitude 10° 23:46:35 10° 283° (WNW) 1,504 -0.5 -17.2°
Maximum altitude 23:49:57 87° 196° (SSW) 426 -3.9 -17.3°
Enters shadow 23:51:11 37° 107° (ESE) 675 -3.0 -17.4°
